This is the latest recevied weather packets stored in our database for station/object OK2ZAW-19. If no packets are shown the sender has not sent any weather packets the latest 10 day(s).
| Time | Temp. | Humidity | Pressure | Rain* | Wind** | Luminosity | Snow |
|---|---|---|---|---|---|---|---|
| 1777208472 | 11.67° C | 39% | 1022.1 hPa | - | - | 337 W/m² | - |
| 1777208162 | 11.67° C | 40% | 1022.2 hPa | - | - | 337 W/m² | - |
| 1777207851 | 11.67° C | 40% | 1022 hPa | - | - | 337 W/m² | - |
| 1777207540 | 11.67° C | 41% | 1022 hPa | - | - | 337 W/m² | - |
| 1777207230 | 11.11° C | 42% | 1021.9 hPa | - | - | 337 W/m² | - |
| 1777206919 | 11.11° C | 42% | 1022.2 hPa | - | - | 338 W/m² | - |
| 1777206609 | 10.56° C | 41% | 1022.2 hPa | - | - | 337 W/m² | - |
| 1777206298 | 10.56° C | 42% | 1022.2 hPa | - | - | 338 W/m² | - |
| 1777205988 | 11.11° C | 42% | 1022.1 hPa | - | - | 337 W/m² | - |
| 1777205677 | 11.11° C | 42% | 1022 hPa | - | - | 337 W/m² | - |
| 1777205367 | 10.56° C | 44% | 1022 hPa | - | - | 337 W/m² | - |
| 1777205056 | 10.56° C | 45% | 1022.1 hPa | - | - | 337 W/m² | - |
| 1777204746 | 10.56° C | 45% | 1022.1 hPa | - | - | 338 W/m² | - |
| 1777204435 | 10° C | 47% | 1022 hPa | - | - | 338 W/m² | - |
| 1777204125 | 10° C | 47% | 1022 hPa | - | - | 337 W/m² | - |
| 1777203505 | 9.44° C | 46% | 1022 hPa | - | - | 337 W/m² | - |
| 1777203194 | 10° C | 45% | 1022 hPa | - | - | 337 W/m² | - |
| 1777202884 | 10° C | 45% | 1021.8 hPa | - | - | 337 W/m² | - |
| 1777202263 | 10.56° C | 49% | 1021.9 hPa | - | - | 337 W/m² | - |
| 1777201643 | 9.44° C | 48% | 1021.9 hPa | - | - | 337 W/m² | - |
| 1777201022 | 9.44° C | 48% | 1021.8 hPa | - | - | 337 W/m² | - |
| 1777199780 | 9.44° C | 51% | 1021.7 hPa | - | - | 337 W/m² | - |
| 1777199470 | 10° C | 50% | 1021.7 hPa | - | - | 337 W/m² | - |
| 1777199159 | 9.44° C | 50% | 1021.7 hPa | - | - | 337 W/m² | - |
| 1777198849 | 8.89° C | 50% | 1021.7 hPa | - | - | 337 W/m² | - |
* Rain since midnight (hover to see other rain measurements)
** Current wind speed in m/s (hover to see current wind gust speed)